Location: L�Adrech
(44.2500°N, 6.4167°E)
Time: 01:10:06
(UTC+00:00)

CZ-2D R/B - Pass Details

Date: 07 June 2020
Orbit: 791 x 845 km, 98.7° (Epoch: 15 July)

Event Time Altitude Azimuth Distance (km) Brightness Sun altitude
Rises 00:25:46 0° 23° (NNE) 3,306 6.7 -21.9°
Reaches altitude 10° 00:28:22 10° 34° (NE) 2,368 5.5 -21.8°
Maximum altitude 00:32:57 31° 96° (E) 1,377 3.4 -21.6°
Enters shadow 00:35:03 23° 135° (SE) 1,632 3.4 -21.5°
